Погода в Таразе

Казахстан     42°54′04″N   71°22′41″E
темп.,
°C
ветер,
м/с
пор.,
м/с
влажн.,
%
обл.,
%
осадки,
мм/ч
давл.,
гПа
погр.,
м
1 марта, пн
пн100:00+2ю12410 0.0 102222
03:00+2ююв124058 0.0 102122
06:00+2ю223976 0.0 102222
09:00+4ю223686 0.0 102225
12:00+11всв012288 0.0 1021406
15:00+13с13190 0.0 10201077
18:00+13св22250 0.0 1020196
21:00+8ююв23370 0.0 102122
2 марта, вт
вт200:00+7ю34360 0.0 102235
03:00+6ю343166 0.0 102154
06:00+6ю453033 0.0 102177
09:00+7ююз23300 0.0 102244
12:00+12з6112811 0.0 10221241
15:00+13з71128100 0.0 10211469
18:00+11сз5839100 0.0 10211054
21:00+7ссз3451100 0.0 1024597
3 марта, ср
ср300:00+4ссз2364100 0.0 102591
03:00+2ссв3576100 0.0 1025286
06:00+1всв1196100 0.6 1025112
09:00+1вюв1297100 2.4 102688
12:00+2ссв2295100 3.9 1025179
15:00+2всв2294100 0.1 1024201
18:00+3всв2391100 0.1 1024243
21:00+3в2394100 0.0 1023129
4 марта, чт
чт400:00+2св1291100 0.0 102325
03:00+1ююз1190100 0.0 102222
06:000ю118886 0.0 102122
09:00+3ю117419 0.0 102127
12:00+9всв114510 0.0 1019339
15:00+13св21360 0.0 1016747
18:00+12вюв224547 0.0 101686
21:00+9ююз2356100 0.1 101873
5 марта, пт
пт500:00+7юз3458100 0.1 101961
03:00+3сз81297100 2.8 1021656
06:00+1з6996100 9.6 1025471
09:00+1ю5790100 2.2 1029351
12:00+2ссз238693 2.3 1030434
15:00+3всв448499 0.1 1029405
18:00+2в568177 0.1 1029415
21:000всв48897 0.0 1028272